sat.trackr.live / text

‹ back to catalog

ONEWEB-0415

NORAD 51624 · 2022-012C

PAYLOAD ACTIVE UNKNOWN

§ Identity

Operator
Country
UK
Launch date
2022-02-10
Launch site
FRGUI
Launch vehicle
Mass (kg)
RCS (m²)

Purposes: comms

External: N2YO · Heavens-Above · Gunter

§ Orbital elements

Epoch: 2026-09-20T01:48:03.010176Z

Period
109.89 min
Inclination
87.8913°
Eccentricity
0.0001447
Mean motion
13.10373193 rev/d
Perigee alt
1,220.6 km
Apogee alt
1,222.8 km
Semi-major
7,599.9 km
B*
1.7591e-3
RAAN
17.3787°
Arg perigee
109.1556°
Mean anomaly
250.9728°
Rev number
22,171

§ Raw data

ONEWEB-04151 51624U 22012C   26263.07503484  .00000627  00000+0  17591-2 0  99942 51624  87.8913  17.3787 0001447 109.1556 250.9728 13.10373193221719

JSON: /api/v1/satellites/51624 · /tle

For live sub-satellite position, see the globe view (requires WebGL).

§ Visibility from observer

Set your observer location to see the next 7 days of passes ≥ 10°. The values pass through the URL so the page stays shareable.

No JS? Fill the form by hand. The geolocation button needs JavaScript.